Hourly Data Report for October 13, 2016

All times are specified in Local Standard Time (LST). Add 1 hour to adjust for Daylight Saving Time where and when it is observed.

CLYDE RIVER A
NUNAVUT

70°29'09.000" N
68°31'01.000" W
26.50 m
2400804
71090
YCY

Download Data

Hourly Data (October 2016)
Hourly Data Report for October 13, 2016
Temp Definition
°C
Dew Point Temp Definition
°C
Rel Hum Definition
%
Wind Dir Definition
10's deg

Wind Spd Definition
km/h
Visibility Definition
km
Stn Press Definition
kPa
Hmdx Definition


Wind Chill Definition


Weather Definition


TIME
00:00 Legend Double Dagger -12.0 -15.0 79 27 13 16.1 101.23   -19 LegendNANA
01:00 Legend Double Dagger -10.8 -14.6 74 28 9 16.1 101.24   -16 LegendNANA
02:00 Legend Double Dagger -10.6 -15.2 69 28 17 16.1 101.24   -18 LegendNANA
03:00 Legend Double Dagger -10.3 -14.8 70 26 9 16.1 101.25   -15 LegendNANA
04:00 Legend Double Dagger -12.4 -15.7 77 28 9 16.1 101.25   -18 LegendNANA
05:00 Legend Double Dagger -12.4 -15.5 78 29 9 16.1 101.23   -18 LegendNANA
06:00 Legend Double Dagger -11.0 -14.0 79 26 11 16.1 101.20   -17 LegendNANA
07:00 Legend Double Dagger -8.5 -11.7 78 26 17 16.1 101.16   -15 Snow
08:00 Legend Double Dagger -8.0 -11.0 79 30 11 16.1 101.13   -13 LegendNANA
09:00 Legend Double Dagger -8.4 -11.3 80 29 18 16.1 101.06   -15 Snow
10:00 Legend Double Dagger -6.8 -10.2 77 31 15 16.1 101.02   -13 LegendNANA
11:00 Legend Double Dagger -7.5 -11.0 76 29 22 16.1 100.97   -15 LegendNANA
12:00 Legend Double Dagger -8.4 -12.1 75 29 22 16.1 100.96   -16 LegendNANA
13:00 Legend Double Dagger -7.2 -10.5 77 30 21 16.1 100.93   -15 LegendNANA
14:00 Legend Double Dagger -6.8 -10.0 78 29 21 16.1 100.91   -14 LegendNANA
15:00 Legend Double Dagger -6.9 -10.3 77 30 22 16.1 100.90   -14 LegendNANA
16:00 Legend Double Dagger -7.3 -10.7 77 31 21 16.1 100.89   -15 LegendNANA
17:00 Legend Double Dagger -7.3 -10.7 77 30 21 16.1 100.86   -15 LegendNANA
18:00 Legend Double Dagger -7.3 -10.0 81 31 17 6.4 100.86   -14 Snow
19:00 Legend Double Dagger -8.0 -10.5 82 31 17 16.1 100.84   -15 Snow
20:00 Legend Double Dagger -8.0 -10.4 83 30 22 16.1 100.82   -16 LegendNANA
21:00 Legend Double Dagger -7.5 -9.9 83 30 24 16.1 100.80   -15 LegendNANA
22:00 Legend Double Dagger -7.2 -9.6 83 30 22 16.1 100.79   -15 LegendNANA
23:00 Legend Double Dagger -6.9 -9.0 85 30 24 16.1 100.77   -15 LegendNANA

Notes on Data Quality.

Legend

  • E = Estimated
  • M = Missing
  • NA = Not Available
  • ‡ = Partner data that is not subject to review by the National Climate Archives
Date modified: